Weather History for KSNT - February, 2014

Change the Weather History Date:

Saturday, February 15, 2014

  Actual Average Record
Temperature  
Mean Temperature 34 °F 18 °F  
Max Temperature 40 °F 33 °F 52 °F (1991)
Min Temperature 28 °F 3 °F -28 °F (1966)
Degree Days  
Heating Degree Days 31 47  
Month to date heating degree days 729 726  
Since 1 July heating degree days 6669 6955  
Cooling Degree Days 0 0  
Month to date cooling degree days 0 0  
Year to date cooling degree days 0 0  
Moisture  
Dew Point 31 °F    
Average Humidity 88    
Maximum Humidity 100    
Minimum Humidity 76    
Precipitation  
Precipitation 0.24 in 0.05 in 0.24 in (2014)
Month to date precipitation 3.36 1.05  
Year to date precipitation 5.32 2.57  
Sea Level Pressure  
Sea Level Pressure 29.83 in    
Wind  
Wind Speed 6 mph (SE)    
Max Wind Speed 18 mph    
Max Gust Speed 25 mph    
T = Trace of Precipitation, MM = Missing Value Source: NWS Daily Summary

Daily Weather History Graph

Daily Weather History Graph

Search for Another Location

Airport or City:

Trip Planner

Search our weather history database for the weather conditions in past years. The results will help you decide how hot, cold, wet, or windy it might be!

Date:

Astronomy

Feb. 15, 2014 Rise Set
Actual Time 7:39 AM MST 6:09 PM MST
Civil Twilight 7:09 AM MST 6:39 PM MST
Nautical Twilight 6:35 AM MST 7:12 PM MST
Astronomical Twilight 6:01 AM MST 7:46 PM MST
Moon 7:17 PM MST (2/15) 7:36 AM MST (2/15)
Length of Visible Light 11h 29m
Length of Day
10h 30m
Waxing Gibbous, 99% of the Moon is Illuminated
Feb 15
Waxing Gibbous
Feb 22
Last Quarter
Mar 1
New
Mar 8
First Quarter
Mar 16
Full

Hourly Weather History & Observations

Time (MST) Temp. Windchill Dew Point Humidity Pressure Visibility Wind Dir Wind Speed Gust Speed Precip Events Conditions
12:51 AM 30.0 °F 26.5 °F 28.9 °F 96% 29.94 in - West 3.5 mph - 0.02 in   Unknown
1:51 AM 30.0 °F - 28.9 °F 96% 29.91 in - Calm Calm - 0.02 in   Unknown
2:51 AM 30.0 °F - 28.9 °F 96% 29.91 in - Calm Calm - N/A   Unknown
3:51 AM 28.9 °F 25.2 °F 28.0 °F 96% 29.91 in - NNW 3.5 mph - 0.01 in   Unknown
4:51 AM 28.9 °F - 28.0 °F 96% 29.90 in - Calm Calm - N/A   Unknown
5:51 AM 28.9 °F - 28.0 °F 96% 29.93 in - Calm Calm - 0.01 in   Unknown
6:51 AM 28.9 °F 25.2 °F 28.0 °F 96% 29.91 in - ESE 3.5 mph - N/A   Unknown
7:51 AM 30.0 °F 25.2 °F 28.0 °F 92% 29.91 in - SSE 4.6 mph - N/A   Unknown
8:51 AM 30.9 °F 26.2 °F 28.9 °F 92% 29.91 in - SE 4.6 mph - N/A   Unknown
9:51 AM 32.0 °F 28.7 °F 30.0 °F 92% 29.91 in - East 3.5 mph - N/A   Unknown
10:51 AM 33.1 °F - 30.9 °F 92% 29.90 in - Calm Calm - 0.04 in   Unknown
11:51 AM 34.0 °F 31.0 °F 32.0 °F 92% 29.88 in - ESE 3.5 mph - 0.01 in   Unknown
12:51 PM 35.1 °F 29.3 °F 33.1 °F 92% 29.85 in - SE 6.9 mph - 0.03 in   Unknown
1:51 PM 36.0 °F 29.6 °F 34.0 °F 93% 29.82 in - SSE 8.1 mph - 0.02 in   Unknown
2:51 PM 35.1 °F 26.4 °F 33.1 °F 92% 29.81 in - SSE 12.7 mph 23.0 mph 0.02 in   Unknown
3:51 PM 35.1 °F 24.8 °F 33.1 °F 92% 29.81 in - SSE 17.3 mph 25.3 mph 0.03 in   Unknown
4:51 PM 36.0 °F 29.0 °F 33.1 °F 89% 29.76 in - South 9.2 mph - 0.01 in   Unknown
5:51 PM 37.9 °F 30.9 °F 30.0 °F 73% 29.75 in - SSE 10.4 mph - N/A   Unknown
6:51 PM 37.9 °F 30.5 °F 30.0 °F 73% 29.75 in - SE 11.5 mph 19.6 mph N/A   Unknown
7:51 PM 36.0 °F 27.1 °F 32.0 °F 86% 29.76 in - SSE 13.8 mph 24.2 mph N/A   Unknown
8:51 PM 36.0 °F 29.6 °F 32.0 °F 86% 29.71 in - SE 8.1 mph - N/A   Unknown
9:51 PM 37.0 °F 31.0 °F 32.0 °F 82% 29.67 in - SE 8.1 mph - N/A   Unknown
10:51 PM 36.0 °F 31.1 °F 32.0 °F 86% 29.67 in - SSE 5.8 mph - 0.01 in   Unknown
11:51 PM 35.1 °F 27.4 °F 33.1 °F 92% 29.66 in - SSE 10.4 mph - 0.02 in   Unknown